Vorticity
2 -2 6 5 4 4 7 10 3 2 6 2 16 30 29 22 22 14 8 8 10 8 8 6 6 11 50 7 19 20 17 6 10 5 5 7 9 6 4 3 3 3 2 2 1 2 2
5 -4 4 4 6 6 8 5 4 4 6 34 31 29 25 28 33 40 13 8 6 12 9 6 8 16 -0 2 9 16 19 16 6 9 8 5 7 10 8 5 4 2 2 2 1 3 3
5 1 2 -0 5 7 4 6 5 8 39 25 30 26 32 32 25 24 50 11 7 8 9 8 10 -8 5 15 11 7 17 21 19 7 7 7 5 6 9 9 6 5 3 4 2 4 4
4 2 -5 3 5 6 6 3 6 37 13 31 32 36 29 26 29 33 20 60 9 4 9 9 8 9 17 4 4 7 13 15 16 20 9 7 8 3 6 10 8 8 7 7 6 8 5
-1 -2 1 5 4 8 5 4 35 13 18 35 37 32 34 27 27 28 46 26 37 4 7 8 9 17 8 3 13 11 2 9 13 14 21 13 10 8 7 5 6 8 6 8 6 7 8
2 6 3 6 7 6 3 18 25 17 12 23 46 33 26 17 18 31 34 36 51 9 6 9 8 -3 4 16 9 7 12 9 8 10 14 31 15 9 9 9 7 8 6 7 5 7 8
5 4 5 5 7 5 3 25 16 20 14 11 43 17 9 -2 10 10 42 35 44 33 4 1 -2 2 7 12 9 6 9 6 13 11 11 3 17 22 11 4 7 11 9 9 7 10 6
6 1 6 5 6 4 6 20 19 23 12 17 12 20 8 3 -12 12 30 35 39 11 7 9 11 12 19 7 14 9 5 4 6 9 6 15 6 6 30 13 5 9 6 10 9 11 7
6 2 8 5 6 2 8 19 24 9 26 10 14 2 8 15 9 -4 41 29 41 16 6 8 -23 22 8 6 10 7 18 10 9 14 9 7 8 28 5 17 8 11 14 11 6 10 13
10 5 4 8 5 2 9 22 21 16 24 19 22 26 8 -6 15 14 42 44 48 19 10 0 8 18 1 9 11 12 6 7 8 11 8 9 11 -13 2 6 3 6 15 14 14 12 9
5 4 3 9 4 1 10 21 28 25 18 16 19 20 31 21 22 21 35 42 37 -0 13 18 17 16 17 5 14 7 6 7 9 6 6 13 12 12 11 10 9 11 10 11 11 14 15
9 5 2 9 3 2 10 22 36 23 26 12 13 19 27 19 34 38 36 39 -15 -27 -3 16 12 6 -3 6 9 7 12 8 6 9 8 6 9 11 14 13 12 14 12 10 11 12 11
8 4 2 9 3 2 14 21 37 34 40 8 13 32 26 37 35 47 34 21 -35 44 -13 25 19 -2 5 8 8 8 12 10 7 5 9 11 12 11 11 12 13 13 11 12 11 10 14
9 1 3 8 4 2 11 25 45 39 22 25 34 53 50 48 43 -4 -5 -4 10 45 -21 -1 23 7 10 9 6 13 8 11 6 8 13 10 14 12 11 11 12 11 10 7 7 6 5
9 3 3 8 4 1 19 35 48 34 35 41 50 12 9 44 -21 30 3 -2 58 25 31 0 8 1 9 9 8 6 10 8 9 2 9 15 12 14 15 15 11 7 5 2 1 4 5
6 2 3 10 5 0 28 57 40 79 54 -20 13 -23 -12 30 25 13 33 29 22 15 3 8 10 5 9 10 9 7 11 4 10 13 15 13 11 12 8 6 4 2 4 4 4 6 7
3 4 5 10 5 3 47 23 15 -29 -29 0 -7 33 8 5 -3 41 25 4 29 17 14 8 9 -1 9 12 10 5 10 10 9 9 10 9 7 9 7 5 6 7 5 4 2 7 9
-0 8 6 10 5 6 39 45 -21 21 0 19 12 -18 2 -3 -7 8 41 6 9 -4 12 3 5 6 9 10 7 12 8 7 8 10 9 8 8 7 6 7 4 3 4 8 8 8 11
2 6 6 9 4 12 28 16 -7 -12 9 -3 -8 -0 3 -19 12 3 13 28 16 16 12 7 4 10 9 8 6 12 9 6 7 8 4 9 8 7 5 4 5 10 8 12 8 12 14
6 4 6 8 5 5 52 1 -15 -11 -3 10 11 6 30 14 8 -6 -14 3 22 11 12 21 19 17 21 3 6 11 8 7 5 6 8 8 5 5 4 8 8 8 8 12 13 18 15
6 5 4 8 6 3 3 57 15 -1 -9 -3 4 19 32 10 2 2 8 -5 5 14 22 6 16 23 2 8 7 9 8 8 9 7 7 5 4 6 10 8 9 11 14 16 18 12 12
23 9 2 8 4 6 5 4 32 35 -22 9 -12 2 12 5 0 -1 1 10 11 11 9 31 5 15 1 6 5 10 9 8 7 5 4 5 7 9 8 8 13 14 17 11 6 7 7
16 9 7 8 3 7 4 5 6 13 37 20 12 -4 -1 -2 5 6 -2 5 4 4 17 7 32 12 10 14 7 8 6 7 7 7 9 9 10 10 6 11 17 12 6 7 4 8 -9
10 16 6 9 4 6 5 6 3 5 7 23 22 19 10 9 -5 7 1 -6 -3 -7 -6 -1 10 9 35 3 12 13 11 10 11 8 9 7 12 8 13 13 13 9 4 11 3 4 4
15 17 7 7 6 5 5 9 7 7 5 -0 14 8 22 -3 8 8 12 15 11 11 14 2 -0 -4 9 25 -0 8 11 11 7 4 10 8 12 8 9 17 14 10 4 4 3 7 7
8 16 8 4 6 5 3 2 9 6 7 6 12 12 13 5 1 5 5 9 12 6 4 3 9 13 9 19 18 2 4 4 6 2 7 9 9 13 11 2 9 11 6 3 5 7 7
18 14 7 5 5 5 2 1 5 8 8 11 5 10 15 19 6 0 -4 -6 -1 13 12 5 9 9 8 8 24 15 8 5 7 6 11 10 8 16 10 12 12 6 3 6 3 9 8
24 14 4 5 4 6 4 4 7 10 8 7 8 6 11 10 15 9 15 7 7 3 0 10 10 13 9 12 10 17 11 7 6 7 7 9 6 13 9 9 3 8 6 7 7 6 6
22 11 1 4 1 3 4 3 6 11 8 8 7 5 6 11 9 21 17 2 3 5 3 11 13 11 16 12 10 13 11 11 8 9 8 2 7 11 7 2 10 6 7 9 3 5 2
Height
5737 5728 5719 5708 5701 5691 5680 5669 5658 5646 5634 5620 5606 5591 5580 5580 5583 5584 5589 5595 5602 5610 5619 5627 5632 5637 5643 5651 5657 5664 5671 5681 5688 5697 5704 5711 5718 5724 5730 5736 5739 5744 5750 5755 5761 5764 5767
5728 5720 5712 5701 5691 5680 5668 5655 5642 5627 5611 5592 5573 5558 5549 5548 5550 5554 5562 5574 5582 5594 5604 5615 5624 5628 5635 5644 5646 5655 5662 5671 5680 5688 5696 5703 5711 5717 5722 5727 5732 5737 5741 5746 5752 5758 5761
5723 5714 5703 5693 5682 5669 5655 5641 5624 5607 5586 5567 5547 5534 5527 5525 5526 5529 5534 5550 5565 5577 5590 5602 5612 5617 5627 5633 5639 5648 5655 5662 5671 5680 5689 5695 5702 5709 5715 5720 5727 5730 5736 5740 5747 5752 5753
5717 5708 5696 5684 5673 5658 5642 5624 5606 5586 5568 5547 5526 5515 5509 5507 5506 5509 5514 5526 5545 5562 5577 5589 5600 5609 5620 5623 5630 5641 5648 5656 5663 5672 5680 5687 5693 5701 5707 5712 5718 5723 5728 5732 5740 5741 5746
5711 5700 5689 5676 5663 5647 5630 5610 5590 5572 5553 5533 5513 5504 5500 5497 5496 5496 5500 5510 5527 5548 5565 5578 5592 5602 5611 5620 5628 5633 5642 5649 5658 5665 5672 5680 5686 5693 5700 5705 5711 5715 5720 5725 5730 5733 5737
5705 5694 5682 5668 5655 5638 5620 5598 5577 5560 5543 5525 5508 5501 5498 5495 5493 5491 5493 5499 5511 5535 5556 5571 5584 5594 5607 5617 5621 5628 5636 5645 5653 5659 5666 5672 5678 5685 5692 5699 5705 5710 5713 5717 5722 5726 5729
5700 5688 5675 5661 5647 5630 5610 5587 5568 5550 5535 5520 5508 5502 5498 5495 5492 5490 5489 5492 5506 5525 5547 5562 5578 5588 5600 5608 5616 5624 5633 5641 5648 5655 5662 5667 5674 5679 5686 5692 5696 5701 5706 5710 5715 5718 5722
5694 5683 5669 5656 5640 5623 5602 5579 5560 5543 5528 5515 5508 5503 5499 5495 5492 5487 5484 5487 5498 5518 5542 5562 5575 5586 5596 5604 5614 5621 5628 5637 5644 5650 5656 5664 5668 5676 5681 5684 5690 5695 5700 5705 5708 5711 5714
5689 5678 5665 5651 5634 5616 5597 5574 5554 5539 5526 5515 5507 5502 5497 5493 5490 5487 5482 5486 5498 5518 5541 5561 5572 5582 5593 5602 5610 5619 5626 5634 5642 5648 5654 5661 5668 5671 5676 5680 5685 5689 5693 5698 5702 5703 5707
5685 5674 5662 5647 5631 5613 5592 5569 5549 5535 5522 5513 5504 5497 5493 5490 5488 5485 5483 5488 5502 5521 5543 5558 5570 5582 5592 5599 5608 5616 5624 5631 5638 5645 5650 5656 5663 5667 5671 5676 5681 5684 5688 5692 5696 5699 5701
5682 5671 5659 5645 5629 5610 5589 5565 5544 5529 5519 5510 5501 5494 5489 5486 5485 5485 5486 5494 5510 5527 5547 5563 5573 5580 5589 5599 5609 5614 5620 5628 5635 5643 5650 5655 5659 5663 5667 5672 5677 5682 5685 5687 5690 5692 5696
5678 5668 5657 5644 5627 5609 5588 5563 5541 5525 5516 5508 5500 5492 5487 5485 5484 5486 5492 5502 5517 5534 5547 5560 5568 5579 5589 5597 5605 5612 5621 5627 5633 5639 5645 5649 5654 5659 5664 5668 5672 5677 5680 5682 5685 5688 5690
5676 5666 5655 5644 5627 5609 5587 5561 5539 5523 5514 5508 5499 5491 5487 5487 5489 5495 5504 5516 5530 5537 5549 5561 5571 5582 5591 5600 5606 5613 5620 5626 5633 5639 5643 5647 5651 5655 5660 5665 5669 5673 5676 5679 5681 5683 5686
5675 5665 5653 5643 5628 5611 5588 5562 5541 5525 5518 5511 5504 5500 5496 5498 5503 5511 5520 5537 5540 5546 5553 5563 5574 5585 5593 5599 5606 5613 5619 5624 5630 5636 5641 5645 5649 5652 5656 5661 5664 5669 5673 5675 5677 5680 5681
5675 5665 5652 5643 5629 5614 5592 5567 5548 5533 5526 5519 5519 5520 5519 5522 5525 5534 5537 5540 5545 5552 5562 5569 5577 5588 5593 5599 5608 5612 5619 5624 5629 5634 5639 5642 5646 5650 5654 5659 5664 5667 5670 5672 5673 5674 5675
5673 5665 5654 5644 5632 5618 5598 5573 5560 5547 5541 5541 5539 5539 5539 5539 5538 5542 5546 5548 5553 5562 5570 5578 5584 5589 5596 5602 5608 5613 5619 5624 5628 5633 5637 5641 5646 5649 5654 5659 5662 5663 5667 5669 5669 5668 5668
5672 5666 5655 5646 5634 5623 5609 5590 5583 5572 5566 5561 5557 5558 5556 5552 5553 5555 5556 5559 5564 5571 5576 5583 5590 5596 5600 5605 5610 5615 5620 5625 5628 5632 5637 5641 5647 5651 5654 5657 5659 5662 5662 5664 5665 5665 5663
5669 5666 5656 5647 5637 5624 5616 5603 5598 5592 5584 5579 5576 5577 5573 5571 5566 5565 5567 5570 5575 5581 5585 5590 5594 5598 5603 5608 5612 5616 5620 5624 5628 5633 5639 5643 5647 5649 5652 5654 5656 5658 5659 5660 5659 5660 5659
5668 5664 5658 5649 5641 5631 5619 5611 5606 5604 5600 5593 5592 5591 5588 5585 5582 5580 5581 5584 5588 5589 5592 5595 5598 5602 5606 5609 5613 5616 5621 5625 5629 5634 5639 5642 5645 5647 5649 5652 5654 5655 5654 5654 5653 5653 5652
5666 5662 5658 5652 5643 5637 5628 5620 5613 5611 5608 5604 5601 5598 5595 5596 5595 5592 5591 5593 5595 5595 5598 5600 5601 5604 5608 5611 5616 5619 5622 5626 5630 5633 5637 5640 5642 5645 5648 5649 5650 5649 5648 5647 5647 5647 5646
5665 5660 5657 5652 5646 5640 5632 5627 5621 5617 5614 5612 5609 5606 5605 5604 5603 5601 5601 5600 5600 5601 5602 5603 5605 5607 5611 5615 5617 5620 5623 5627 5630 5632 5636 5639 5641 5643 5644 5644 5644 5644 5643 5643 5644 5645 5645
5661 5656 5654 5650 5645 5641 5636 5629 5624 5621 5619 5617 5615 5613 5612 5610 5610 5608 5608 5606 5607 5607 5607 5607 5609 5611 5613 5616 5619 5622 5624 5627 5630 5633 5635 5637 5639 5640 5640 5639 5640 5641 5641 5641 5642 5641 5639
5654 5652 5648 5646 5642 5640 5636 5632 5628 5623 5620 5618 5616 5616 5615 5615 5614 5613 5613 5612 5612 5611 5611 5611 5612 5613 5615 5618 5619 5622 5624 5626 5629 5631 5632 5634 5636 5636 5636 5636 5637 5639 5639 5638 5639 5638 5637
5647 5646 5642 5641 5638 5636 5633 5630 5625 5622 5620 5618 5617 5615 5614 5614 5615 5615 5614 5614 5614 5614 5614 5614 5614 5615 5617 5618 5619 5621 5623 5625 5627 5628 5630 5631 5632 5633 5633 5634 5635 5636 5636 5636 5637 5636 5635
5638 5638 5636 5635 5632 5630 5630 5628 5624 5621 5618 5616 5615 5614 5612 5612 5612 5612 5612 5613 5613 5613 5613 5613 5614 5615 5615 5616 5618 5619 5620 5623 5624 5626 5628 5628 5629 5630 5630 5631 5633 5634 5635 5636 5636 5636 5632
5629 5629 5628 5629 5626 5624 5624 5624 5623 5620 5616 5613 5611 5611 5611 5610 5610 5609 5608 5609 5609 5610 5611 5610 5610 5610 5612 5612 5613 5615 5618 5620 5622 5624 5625 5626 5626 5628 5628 5630 5631 5633 5633 5634 5634 5633 5631
5619 5620 5619 5621 5620 5619 5617 5617 5617 5615 5613 5611 5608 5606 5606 5606 5606 5605 5605 5605 5605 5606 5606 5607 5607 5607 5608 5609 5609 5611 5613 5616 5618 5620 5622 5622 5623 5625 5625 5627 5629 5630 5630 5630 5631 5633 5628
5609 5611 5611 5613 5613 5612 5611 5610 5610 5609 5608 5606 5605 5602 5600 5600 5599 5599 5599 5600 5601 5600 5601 5602 5603 5603 5603 5604 5605 5606 5608 5611 5613 5615 5617 5619 5620 5621 5622 5624 5627 5627 5627 5628 5628 5626 5625
5600 5601 5603 5604 5605 5605 5605 5604 5603 5602 5600 5599 5597 5596 5594 5593 5592 5591 5591 5593 5593 5593 5594 5595 5597 5597 5598 5599 5600 5601 5603 5605 5607 5610 5613 5616 5617 5618 5620 5621 5622 5623 5623 5623 5623 5622 5621